WetterOnline ( https://www.wetteronline.de )

Wetter aktuell Baesweiler

Aktuelles Wetter: Aachen-Orsbach (231m)

6-stündlich | Neueste Meldungen
Ortszeit Temperatur Wetter
Mi, 21.08. 2:00 12.9° C wolkig
Di, 20.08. 20:00 18.3° C wolkenlos
Di, 20.08. 14:00 18.2° C wolkig
Di, 20.08. 8:00 12.4° C wolkenlos
Di, 20.08. 2:00 13.3° C wolkenlos
Mo, 19.08. 20:00 18.7° C leicht bewölkt
Mo, 19.08. 14:00 19.2° C wolkig
Mo, 19.08. 8:00 12.8° C wolkenlos
Ortszeit Temperatur Wetter
Mi, 21.08. 2:00 12.9° C wolkig
Mi, 21.08. 1:40 14.1° C leicht bewölkt
Mi, 21.08. 1:30 13.3° C wolkig
Mi, 21.08. 1:20 13.3° C wolkig
Mi, 21.08. 1:10 14.2° C wolkig
Mi, 21.08. 1:00 14.1° C bewölkt
Mi, 21.08. 0:50 14.1° C bewölkt
Mi, 21.08. 0:30 14.0° C bewölkt
Mi, 21.08. 0:00 14.6° C leicht bewölkt
Di, 20.08. 23:30 14.6° C leicht bewölkt
Di, 20.08. 23:00 14.5° C wolkenlos
Ortszeit Relative Feuchte Sichtweite
Mi, 21.08. 2:00 77% 35 km
Di, 20.08. 20:00 56% 55 km
Di, 20.08. 14:00 55% 55 km
Di, 20.08. 8:00 84% 30 km
Di, 20.08. 2:00 80% 40 km
Mo, 19.08. 20:00 55% 65 km
Mo, 19.08. 14:00 57% 50 km
Mo, 19.08. 8:00 83% 40 km
Ortszeit Relative Feuchte Sichtweite
Mi, 21.08. 2:00 77% 35 km
Mi, 21.08. 1:40 71% -
Mi, 21.08. 1:30 79% 40 km
Mi, 21.08. 1:20 79% -
Mi, 21.08. 1:10 72% -
Mi, 21.08. 1:00 73% 50 km
Mi, 21.08. 0:50 73% -
Mi, 21.08. 0:30 73% 50 km
Mi, 21.08. 0:00 70% 45 km
Di, 20.08. 23:30 71% 45 km
Di, 20.08. 23:00 72% 40 km
Ortszeit Niederschlagsmenge Niederschlagsart
Mi, 21.08. 2:00 0.0 l/m2 in 6 Std. -
Di, 20.08. 20:00 0.0 l/m2 in 12 Std. -
Di, 20.08. 14:00 0.0 l/m2 in 6 Std. -
Di, 20.08. 8:00 0.1 l/m2 in 12 Std. -
Di, 20.08. 2:00 0.1 l/m2 in 6 Std. Regen
Mo, 19.08. 20:00 0.0 l/m2 in 12 Std. -
Mo, 19.08. 14:00 0.0 l/m2 in 6 Std. -
Mo, 19.08. 8:00 0.0 l/m2 in 12 Std. -
Ortszeit Niederschlagsmenge Niederschlagsart
Mi, 21.08. 2:00 0.0 l/m2 in 1 Std. -
Mi, 21.08. 1:40 keine Meldung -
Mi, 21.08. 1:30 0.0 l/m2 in 1 Std. -
Mi, 21.08. 1:20 keine Meldung -
Mi, 21.08. 1:10 keine Meldung -
Mi, 21.08. 1:00 0.0 l/m2 in 1 Std. -
Mi, 21.08. 0:50 keine Meldung -
Mi, 21.08. 0:30 0.0 l/m2 in 1 Std. -
Mi, 21.08. 0:00 0.0 l/m2 in 1 Std. -
Di, 20.08. 23:30 0.0 l/m2 in 1 Std. -
Di, 20.08. 23:00 0.0 l/m2 in 1 Std. -
Ortszeit Stärke Spitze Richtung
km/h Bft. km/h Grad Sektor
Mi, 21.08. 2:00 4 1 18 230° SW
Di, 20.08. 20:00 14 3 36 280° W
Di, 20.08. 14:00 17 3 28 250° W
Di, 20.08. 8:00 13 3 22 230° SW
Di, 20.08. 2:00 13 3 26 220° SW
Mo, 19.08. 20:00 13 3 43 250° W
Mo, 19.08. 14:00 18 3 40 240° SW
Mo, 19.08. 8:00 17 3 31 220° SW
Ortszeit Stärke Spitze Richtung
km/h Bft. km/h Grad Sektor
Mi, 21.08. 2:00 4 1 4 230° SW
Mi, 21.08. 1:40 0 0 - 160° S
Mi, 21.08. 1:30 0 0 4 - -
Mi, 21.08. 1:20 0 0 - 40° NO
Mi, 21.08. 1:10 2 1 - 250° W
Mi, 21.08. 1:00 0 0 7 - -
Mi, 21.08. 0:50 2 1 - 340° N
Mi, 21.08. 0:30 4 1 7 280° W
Mi, 21.08. 0:00 6 1 9 310° NW
Di, 20.08. 23:30 7 2 11 290° W
Di, 20.08. 23:00 6 1 9 260° W
Ortszeit Untergrenze Bedeckung Gattung
total tief tief mittel hoch
Mi, 21.08. 2:00 1230 m 5/8 5/8 - - -
Di, 20.08. 20:00 - 0/8 0/8 - - -
Di, 20.08. 14:00 1380 m 7/8 1/8 - - -
Di, 20.08. 8:00 9000 m 0/8 0/8 - - -
Di, 20.08. 2:00 - 0/8 0/8 - - -
Mo, 19.08. 20:00 1500 m 3/8 3/8 - - -
Mo, 19.08. 14:00 1200 m 5/8 5/8 - - -
Mo, 19.08. 8:00 - 0/8 0/8 - - -
Ortszeit Bedeckungsgrad in Achtel und Wolkenuntergrenze
Mi, 21.08. 2:00 5(1230m)
Mi, 21.08. 1:40 3(1290m)
Mi, 21.08. 1:30 4(1350m) 5(1500m)
Mi, 21.08. 1:20 4(1350m) 5(1500m)
Mi, 21.08. 1:10 5(1380m) 6(1500m)
Mi, 21.08. 1:00 7(1320m) 7(1500m)
Mi, 21.08. 0:50 7(1320m)
Mi, 21.08. 0:30 6(1350m) 7(1500m)
Mi, 21.08. 0:00 2(1500m) 2(1500m)
Di, 20.08. 23:30 2(1500m)
Di, 20.08. 23:00 keine Wolken
Ortszeit Luftdruck NN (hPa) Tendenz (hPa in 3 Std.)
Mi, 21.08. 2:00 1028 + 1,0
Di, 20.08. 20:00 1025 + 1,0
Di, 20.08. 14:00 1023 + 0,5
Di, 20.08. 8:00 1023 + 0,9
Di, 20.08. 2:00 1021 + 1,2
Mo, 19.08. 20:00 1018 + 0,7
Mo, 19.08. 14:00 1017 + 0,8
Mo, 19.08. 8:00 1016 + 1,1
Ortszeit Luftdruck NN (hPa) Tendenz (hPa in 3 Std.)
Mi, 21.08. 2:00 1028 + 1,0
Mi, 21.08. 1:40 1028 keine Meldung
Mi, 21.08. 1:30 1028 + 1,2
Mi, 21.08. 1:20 1028 keine Meldung
Mi, 21.08. 1:10 1028 keine Meldung
Mi, 21.08. 1:00 1027 + 1,4
Mi, 21.08. 0:50 1027 keine Meldung
Mi, 21.08. 0:30 1027 + 1,5
Mi, 21.08. 0:00 1027 + 1,7
Di, 20.08. 23:30 1027 + 1,8
Di, 20.08. 23:00 1027 + 1,6
Ortszeit Schneehöhe (cm)
Mi, 21.08. 2:00 -
Di, 20.08. 20:00 -
Di, 20.08. 14:00 -
Di, 20.08. 8:00 -
Di, 20.08. 2:00 -
Mo, 19.08. 20:00 -
Mo, 19.08. 14:00 -
Mo, 19.08. 8:00 -
Ortszeit Schneehöhe (cm)
Mi, 21.08. 2:00 -
Mi, 21.08. 1:40 -
Mi, 21.08. 1:30 -
Mi, 21.08. 1:20 -
Mi, 21.08. 1:10 -
Mi, 21.08. 1:00 -
Mi, 21.08. 0:50 -
Mi, 21.08. 0:30 -
Mi, 21.08. 0:00 -
Di, 20.08. 23:30 -
Di, 20.08. 23:00 -
Link zu dieser Seite / Seite empfehlen

Das Wetter in ...